GW1114 Weather Reports


Display with metric or nautical units.
time (UTC)temp
F
wind
direction
speed
MPH
gust
MPH
rain 1hr
in
rain 24hr
in
rain mn
in
humidity
%
barometer
mb
20260505212517 86 101 1.0 8.0 0.00 0.00 0.00 35 1012.5
20260505212016 86 223 1.0 7.0 0.00 0.00 0.00 31 1012.6
20260505211530 86 157 2.0 7.0 0.00 0.00 0.00 29 1012.7
20260505211015 87 184 1.0 6.0 0.00 0.00 0.00 34 1012.7
20260505210517 87 258 1.0 6.0 0.00 0.00 0.00 31 1012.7
20260505210033 87 0 1.0 6.0 0.00 0.00 0.00 29 1012.7
20260505205517 88 213 1.0 5.0 0.00 0.00 0.00 32 1012.7
20260505205013 88 348 2.0 5.0 0.00 0.00 0.00 31 1012.9
20260505204532 88 29 1.0 5.0 0.00 0.00 0.00 34 1012.9
20260505204016 88 138 1.0 5.0 0.00 0.00 0.00 33 1012.9
20260505203514 88 180 1.0 8.0 0.00 0.00 0.00 33 1013.0
20260505203031 88 204 2.0 6.0 0.00 0.00 0.00 34 1013.0
20260505202517 88 0 1.0 5.0 0.00 0.00 0.00 33 1013.0
20260505202015 88 179 1.0 5.0 0.00 0.00 0.00 34 1012.9
20260505201532 87 180 1.0 5.0 0.00 0.00 0.00 33 1013.1
20260505201014 87 0 1.0 5.0 0.00 0.00 0.00 34 1013.1
20260505200516 86 0 1.0 6.0 0.00 0.00 0.00 35 1013.2
20260505200037 85 115 2.0 6.0 0.00 0.00 0.00 35 1013.3
20260505195514 84 163 1.0 10.0 0.00 0.00 0.00 36 1013.4
20260505195014 85 162 1.0 10.0 0.00 0.00 0.00 35 1013.6
20260505194530 86 286 2.0 6.0 0.00 0.00 0.00 34 1013.7
20260505194015 85 103 1.0 6.0 0.00 0.00 0.00 34 1013.9
20260505193516 85 38 1.0 5.0 0.00 0.00 0.00 35 1013.9
20260505193030 84 269 1.0 4.0 0.00 0.00 0.00 35 1013.9
20260505192517 84 0 1.0 4.0 0.00 0.00 0.00 37 1013.9
20260505192014 84 0 0.0 8.0 0.00 0.00 0.00 38 1013.8
20260505191532 84 99 1.0 8.0 0.00 0.00 0.00 37 1013.8
20260505191017 85 167 2.0 8.0 0.00 0.00 0.00 35 1014.0
20260505190514 84 229 0.0 6.0 0.00 0.00 0.00 37 1013.9
20260505190031 85 190 1.0 6.0 0.00 0.00 0.00 37 1013.9
20260505185514 85 0 2.0 5.0 0.00 0.00 0.00 37 1013.9
20260505185018 85 125 1.0 5.0 0.00 0.00 0.00 36 1014.0
20260505184531 85 259 1.0 5.0 0.00 0.00 0.00 34 1014.1
20260505184016 84 165 1.0 5.0 0.00 0.00 0.00 39 1014.1
20260505183514 82 206 1.0 5.0 0.00 0.00 0.00 40 1014.1
20260505183043 82 156 0.0 5.0 0.00 0.00 0.00 42 1014.1
20260505182514 82 197 1.0 5.0 0.00 0.00 0.00 40 1014.4
20260505182017 82 98 2.0 5.0 0.00 0.00 0.00 37 1014.4
20260505181532 82 28 1.0 6.0 0.00 0.00 0.00 38 1014.3
20260505181019 82 67 2.0 6.0 0.00 0.00 0.00 36 1014.5
20260505180513 82 5 2.0 6.0 0.00 0.00 0.00 37 1014.5
20260505180032 82 261 1.0 7.0 0.00 0.00 0.00 37 1014.7
20260505175516 82 109 2.0 7.0 0.00 0.00 0.00 37 1014.7
20260505175015 82 184 2.0 7.0 0.00 0.00 0.00 42 1014.8
20260505174532 81 323 1.0 6.0 0.00 0.00 0.00 38 1014.7
20260505174015 81 255 1.0 5.0 0.00 0.00 0.00 41 1014.9
20260505173514 80 0 1.0 5.0 0.00 0.00 0.00 42 1015.1
20260505173038 80 103 1.0 5.0 0.00 0.00 0.00 41 1015.1
20260505172514 80 170 2.0 5.0 0.00 0.00 0.00 42 1015.2
20260505172013 79 273 2.0 4.0 0.00 0.00 0.00 45 1015.2
20260505171533 78 352 1.0 3.0 0.00 0.00 0.00 43 1015.1
20260505171015 78 0 0.0 5.0 0.00 0.00 0.00 45 1015.2
20260505170515 78 142 1.0 5.0 0.00 0.00 0.00 46 1015.3
20260505170035 77 99 1.0 6.0 0.00 0.00 0.00 47 1015.1
20260505165516 76 184 1.0 7.0 0.00 0.00 0.00 47 1015.2
20260505165014 76 28 2.0 7.0 0.00 0.00 0.00 45 1015.1
20260505164531 75 65 1.0 8.0 0.00 0.00 0.00 48 1015.1
20260505164014 74 182 3.0 8.0 0.00 0.00 0.00 46 1015.1
20260505163514 74 105 2.0 6.0 0.00 0.00 0.00 47 1015.2
20260505163031 73 203 1.0 7.0 0.00 0.00 0.00 49 1015.3
20260505162513 73 98 1.0 7.0 0.00 0.00 0.00 48 1015.2
20260505162014 72 114 1.0 6.0 0.00 0.00 0.00 51 1015.3
20260505161532 72 313 1.0 7.0 0.00 0.00 0.00 52 1015.3
20260505161016 71 343 1.0 7.0 0.00 0.00 0.00 51 1015.4
20260505160517 71 177 1.0 4.0 0.00 0.00 0.00 51 1015.5
20260505153039 68 157 2.0 11.0 0.00 0.00 0.00 58 1015.3
20260505152513 67 294 2.0 11.0 0.00 0.00 0.00 60 1015.3
20260505152017 67 181 0.0 3.0 0.00 0.00 0.00 67 1015.3
20260505151535 66 0 0.0 2.0 0.00 0.00 0.00 68 1015.2
20260505151014 66 0 0.0 3.0 0.00 0.00 0.00 67 1015.2
20260505150514 65 0 1.0 3.0 0.00 0.00 0.00 65 1015.5
20260505140517 58 0 0.0 2.0 0.00 0.00 0.00 82 1015.5
20260505125014 51 0 0.0 0.0 0.00 0.00 0.00 96 1015.0
20260505124532 50 0 0.0 0.0 0.00 0.00 0.00 96 1015.0
20260505124016 50 0 0.0 0.0 0.00 0.00 0.00 96 1014.9
20260505123518 50 0 0.0 0.0 0.00 0.00 0.00 96 1015.0
20260505123035 50 0 0.0 0.0 0.00 0.00 0.00 96 1014.9
20260505122515 49 0 0.0 0.0 0.00 0.00 0.00 96 1014.7
20260505122021 49 0 0.0 0.0 0.00 0.00 0.00 95 1014.7
20260505121532 48 0 0.0 0.0 0.00 0.00 0.00 95 1014.9
20260505121017 48 0 0.0 0.0 0.00 0.00 0.00 95 1014.7
20260505120516 48 0 0.0 0.0 0.00 0.00 0.00 94 1014.8
20260505120038 47 0 0.0 0.0 0.00 0.00 0.00 94 1014.8
20260505115516 47 0 0.0 0.0 0.00 0.00 0.00 94 1014.8
20260505115016 47 0 0.0 0.0 0.00 0.00 0.00 94 1014.8
20260505114530 47 0 0.0 0.0 0.00 0.00 0.00 93 1014.6
20260505114017 47 0 0.0 0.0 0.00 0.00 0.00 93 1014.4
20260505113515 47 0 0.0 0.0 0.00 0.00 0.00 93 1014.4
20260505113032 47 0 0.0 0.0 0.00 0.00 0.00 92 1014.3
20260505112516 47 0 0.0 1.0 0.00 0.00 0.00 92 1014.2
20260505112014 47 0 0.0 1.0 0.00 0.00 0.00 92 1014.0
20260505111534 47 0 0.0 0.0 0.00 0.00 0.00 92 1013.9
20260505111018 47 0 0.0 0.0 0.00 0.00 0.00 92 1013.9
20260505110515 47 0 0.0 0.0 0.00 0.00 0.00 91 1013.8
20260505102018 47 0 0.0 1.0 0.00 0.00 0.00 91 1013.8
20260505101529 47 0 0.0 1.0 0.00 0.00 0.00 91 1013.7
20260505101016 47 0 0.0 0.0 0.00 0.00 0.00 91 1013.8
20260505100517 47 0 0.0 0.0 0.00 0.00 0.00 90 1013.8
20260505100032 47 0 0.0 0.0 0.00 0.00 0.00 90 1014.0
20260505095517 47 0 0.0 0.0 0.00 0.00 0.00 90 1014.1
20260505095014 47 0 0.0 0.0 0.00 0.00 0.00 90 1014.1
20260505094531 47 0 0.0 0.0 0.00 0.00 0.00 89 1013.9
20260505094014 47 0 0.0 0.0 0.00 0.00 0.00 89 1013.9
20260505093517 48 0 0.0 0.0 0.00 0.00 0.00 89 1013.8
20260505093032 48 0 0.0 0.0 0.00 0.00 0.00 89 1013.8
20260505092515 48 0 0.0 0.0 0.00 0.00 0.00 89 1013.8
20260505092017 48 0 0.0 0.0 0.00 0.00 0.00 89 1013.8
20260505091530 48 0 0.0 0.0 0.00 0.00 0.00 89 1013.8
20260505091016 48 0 0.0 0.0 0.00 0.00 0.00 89 1013.9
20260505090515 48 0 0.0 0.0 0.00 0.00 0.00 88 1014.1
20260505090036 48 0 0.0 0.0 0.00 0.00 0.00 88 1014.1
20260505085517 48 0 0.0 0.0 0.00 0.00 0.00 88 1014.1
20260505085018 48 0 0.0 0.0 0.00 0.00 0.00 88 1014.1
20260505084541 48 0 0.0 0.0 0.00 0.00 0.00 88 1014.2
20260505084015 49 0 0.0 0.0 0.00 0.00 0.00 88 1014.1
20260505083513 49 0 0.0 0.0 0.00 0.00 0.00 88 1014.1
20260505083032 49 0 0.0 0.0 0.00 0.00 0.00 88 1014.1
20260505082515 49 0 0.0 1.0 0.00 0.00 0.00 89 1014.1
20260505082017 49 0 0.0 1.0 0.00 0.00 0.00 89 1014.1
20260505081532 49 0 0.0 1.0 0.00 0.00 0.00 89 1014.1
20260505081015 49 0 0.0 0.0 0.00 0.00 0.00 88 1014.1
20260505080519 49 0 0.0 0.0 0.00 0.00 0.00 87 1014.2
20260505080030 49 0 0.0 0.0 0.00 0.00 0.00 88 1014.1
20260505075516 49 0 0.0 1.0 0.00 0.00 0.00 88 1014.0
20260505075018 49 0 0.0 1.0 0.00 0.00 0.00 87 1014.0
20260505074535 49 294 0.0 1.0 0.00 0.00 0.00 87 1014.0
20260505074015 49 0 0.0 0.0 0.00 0.00 0.00 87 1014.0
20260505073516 49 0 0.0 0.0 0.00 0.00 0.00 86 1014.1
20260505073041 50 0 0.0 0.0 0.00 0.00 0.00 87 1014.1
20260505072517 50 0 0.0 0.0 0.00 0.00 0.00 87 1014.1
20260505072015 50 0 0.0 0.0 0.00 0.00 0.00 86 1014.1
20260505071531 50 0 0.0 0.0 0.00 0.00 0.00 86 1014.1
20260505071017 50 0 0.0 1.0 0.00 0.00 0.00 86 1014.1
20260505070517 50 0 0.0 1.0 0.00 0.00 0.00 86 1014.1
20260505070040 50 0 0.0 1.0 0.00 0.00 0.00 85 1014.2
20260505065515 50 0 0.0 0.0 0.00 0.00 0.00 85 1014.1
20260505065014 50 0 0.0 0.0 0.00 0.00 0.00 85 1014.1
20260505064534 50 0 0.0 1.0 0.00 0.00 0.00 85 1014.0
20260505064017 50 0 0.0 1.0 0.00 0.00 0.00 86 1014.1
20260505063516 51 0 0.0 1.0 0.00 0.00 0.00 85 1014.1
20260505063032 51 0 0.0 1.0 0.00 0.00 0.00 85 1014.2
20260505062515 51 0 0.0 1.0 0.00 0.00 0.00 84 1014.1
20260505062015 51 0 0.0 1.0 0.00 0.00 0.00 83 1014.2
20260505061538 51 0 0.0 0.0 0.00 0.00 0.00 83 1014.2
20260505061017 51 0 0.0 0.0 0.00 0.00 0.00 83 1014.3
20260505060521 51 0 0.0 0.0 0.00 0.00 0.00 83 1014.3
20260505060035 51 0 0.0 0.0 0.00 0.00 0.00 83 1014.3
20260505055516 51 0 0.0 0.0 0.00 0.00 0.00 82 1014.3
20260505055016 52 0 0.0 0.0 0.00 0.00 0.00 82 1014.3
20260505054538 52 0 0.0 0.0 0.00 0.00 0.00 82 1014.4
20260505054017 52 0 0.0 0.0 0.00 0.00 0.00 83 1014.4
20260505053516 52 0 0.0 0.0 0.00 0.00 0.00 82 1014.3
20260505053032 52 0 0.0 0.0 0.00 0.00 0.00 81 1014.3
20260505052514 52 0 0.0 0.0 0.00 0.00 0.00 80 1014.3
20260505052015 52 0 0.0 0.0 0.00 0.00 0.00 80 1014.3
20260505051531 52 0 0.0 1.0 0.00 0.00 0.00 79 1014.3
20260505051016 53 0 0.0 1.0 0.00 0.00 0.00 79 1014.4
20260505050518 53 0 0.0 0.0 0.00 0.00 0.00 78 1014.3
20260505041548 55 0 0.0 0.0 0.00 0.00 0.00 75 1014.2
20260505041017 55 0 0.0 0.0 0.00 0.00 0.00 74 1014.1
20260505040515 55 0 0.0 0.0 0.00 0.00 0.00 73 1014.2
20260505040039 55 0 0.0 0.0 0.00 0.00 0.00 74 1014.2
20260505035517 55 0 0.0 1.0 0.00 0.00 0.00 73 1014.3
20260505035014 55 0 0.0 1.0 0.00 0.00 0.00 73 1014.3
20260505034532 56 0 0.0 1.0 0.00 0.00 0.00 73 1014.4
20260505034016 56 0 0.0 0.0 0.00 0.00 0.00 72 1014.3
20260505033515 56 0 0.0 0.0 0.00 0.00 0.00 72 1014.4
20260505033034 56 0 0.0 0.0 0.00 0.00 0.00 71 1014.3
20260505032515 57 0 0.0 0.0 0.00 0.00 0.00 70 1014.4
20260505032019 57 0 0.0 0.0 0.00 0.00 0.00 70 1014.3
20260505031539 57 0 0.0 0.0 0.00 0.00 0.00 70 1014.4
20260505031017 57 0 0.0 0.0 0.00 0.00 0.00 70 1014.3
20260505030516 58 0 0.0 0.0 0.00 0.00 0.00 70 1014.3
20260505030037 58 0 0.0 0.0 0.00 0.00 0.00 70 1014.3
20260505025517 58 0 0.0 0.0 0.00 0.00 0.00 69 1014.4
20260505025019 58 0 0.0 0.0 0.00 0.00 0.00 69 1014.3
20260505024533 59 0 0.0 1.0 0.00 0.00 0.00 68 1014.3
20260505024016 59 0 0.0 1.0 0.00 0.00 0.00 67 1014.4
20260505023514 59 0 0.0 0.0 0.00 0.00 0.00 67 1014.4
20260505023038 60 0 0.0 1.0 0.00 0.00 0.00 66 1014.3
20260505022517 60 0 0.0 1.0 0.00 0.00 0.00 66 1014.2
20260505022014 60 0 0.0 0.0 0.00 0.00 0.00 65 1014.1
20260505021534 61 0 0.0 0.0 0.00 0.00 0.00 64 1014.1
20260505021015 61 0 0.0 0.0 0.00 0.00 0.00 63 1014.2
20260505020517 61 0 0.0 0.0 0.00 0.00 0.00 63 1014.1
20260505020031 62 0 0.0 0.0 0.00 0.00 0.00 61 1014.0
20260505015517 62 0 0.0 0.0 0.00 0.00 0.00 60 1013.9
20260505015017 63 0 0.0 0.0 0.00 0.00 0.00 60 1013.8
20260505014546 63 0 0.0 0.0 0.00 0.00 0.00 60 1013.9
20260505014016 64 0 0.0 0.0 0.00 0.00 0.00 57 1014.0
20260505013516 64 0 0.0 0.0 0.00 0.00 0.00 57 1013.9
20260505013033 65 0 0.0 0.0 0.00 0.00 0.00 56 1013.8
20260505012516 65 0 0.0 0.0 0.00 0.00 0.00 55 1013.8
20260505012017 66 0 0.0 0.0 0.00 0.00 0.00 54 1013.8
20260505011535 66 0 0.0 0.0 0.00 0.00 0.00 54 1013.8
20260505011017 67 0 0.0 1.0 0.00 0.00 0.00 53 1013.8
20260505010514 68 0 0.0 1.0 0.00 0.00 0.00 52 1013.8
20260505010036 68 0 0.0 1.0 0.00 0.00 0.00 50 1013.8
20260505005517 69 0 0.0 0.0 0.00 0.00 0.00 49 1013.7
20260505005017 70 0 0.0 0.0 0.00 0.00 0.00 49 1013.7
20260505004607 70 0 0.0 0.0 0.00 0.00 0.00 49 1013.6
20260505004016 71 0 0.0 0.0 0.00 0.00 0.00 51 1013.6
20260505003517 71 0 0.0 0.0 0.00 0.00 0.00 48 1013.6
20260505003031 72 0 0.0 1.0 0.00 0.00 0.00 45 1013.6
20260505002517 73 0 0.0 1.0 0.00 0.00 0.00 44 1013.6
20260505002017 73 0 0.0 1.0 0.00 0.00 0.00 44 1013.5
20260505001534 74 0 0.0 1.0 0.00 0.00 0.00 44 1013.5
20260505001017 75 0 0.0 1.0 0.00 0.00 0.00 43 1013.5
20260505000521 75 0 0.0 1.0 0.00 0.00 0.00 42 1013.4
20260505000044 76 0 0.0 3.0 0.00 0.00 0.00 40 1013.4
20260504235517 76 0 0.0 4.0 0.00 0.00 0.00 39 1013.4
20260504235015 77 0 0.0 4.0 0.00 0.00 0.00 40 1013.4
20260504234535 77 0 0.0 1.0 0.00 0.00 0.00 39 1013.3
20260504234016 78 211 0.0 1.0 0.00 0.00 0.00 38 1013.4
20260504233516 79 0 0.0 1.0 0.00 0.00 0.00 38 1013.4
20260504233052 79 0 0.0 3.0 0.00 0.00 0.00 38 1013.4
20260504232514 80 220 0.0 4.0 0.00 0.00 0.00 35 1013.4
20260504232015 81 346 1.0 4.0 0.00 0.00 0.00 38 1013.4
20260504231537 82 319 1.0 3.0 0.00 0.00 0.00 36 1013.4
20260504231014 82 134 1.0 4.0 0.00 0.00 0.00 33 1013.5
20260504230517 83 167 1.0 4.0 0.00 0.00 0.00 32 1013.4
20260504230035 83 246 0.0 3.0 0.00 0.00 0.00 32 1013.4
20260504225517 83 0 1.0 3.0 0.00 0.00 0.00 32 1013.4
20260504225016 84 188 0.0 3.0 0.00 0.00 0.00 35 1013.4
20260504224536 83 0 0.0 4.0 0.00 0.00 0.00 34 1013.3
20260504224017 83 87 1.0 4.0 0.00 0.00 0.00 32 1013.4
20260504223517 83 180 0.0 2.0 0.00 0.00 0.00 35 1013.4
20260504223051 83 131 1.0 2.0 0.00 0.00 0.00 34 1013.4
20260504222516 83 194 0.0 2.0 0.00 0.00 0.00 33 1013.4
20260504222020 83 0 0.0 3.0 0.00 0.00 0.00 33 1013.4
20260504221537 83 66 0.0 3.0 0.00 0.00 0.00 33 1013.4
20260504221014 84 157 0.0 4.0 0.00 0.00 0.00 30 1013.4
20260504220517 84 0 1.0 4.0 0.00 0.00 0.00 31 1013.4
20260504220036 84 49 1.0 4.0 0.00 0.00 0.00 32 1013.4
20260504215517 84 168 1.0 5.0 0.00 0.00 0.00 34 1013.4
20260504215017 84 229 1.0 5.0 0.00 0.00 0.00 33 1013.4
20260504214533 84 186 1.0 4.0 0.00 0.00 0.00 36 1013.4
20260504214017 84 253 1.0 4.0 0.00 0.00 0.00 32 1013.3
20260504213521 84 101 1.0 4.0 0.00 0.00 0.00 36 1013.2
20260504213045 85 119 1.0 4.0 0.00 0.00 0.00 35 1013.2